Location: Cutler
(25.6150°N, 80.3110°W)
Time: 08:49:37
(UTC-05:00)

Tiangong 1 - Pass Details

Date: 14 November 2017
Orbit: 285 x 309 km, 42.8° (Epoch: 19 November)

Event Time Altitude Azimuth Distance (km) Brightness Sun altitude
Exits shadow 05:05:03 13° 40° (NE) 1,002 3.5 -21.1°
Drops below altitude 10° 05:05:56 10° 60° (ENE) 1,134 4.1 -20.9°
Sets 05:08:35 0° 91° (E) 1,957 6.2 -20.3°
